CAPE
757 801 705 975 645 574 667 867 716 749 718 634 716 906 1001 1207 1652 1684 1737 1650 1155 798 626 772 374 734 1180 1482 1624 1403 1296 1207 1125 948 751 750 732 769 847 816 879 935 1093 1106 1197 1201 1170 1142 875 1146 948 1226 1533 1714 1879 2168 976 979 829 758 822 803
849 770 863 786 662 563 762 661 626 651 787 793 935 1516 1686 1472 1303 1513 1445 1020 733 614 571 474 485 998 721 1302 1576 1472 1324 1211 1129 941 696 755 748 744 819 708 759 796 971 990 1122 1072 794 1163 1053 696 1240 1416 1393 1751 1973 1733 778 794 872 770 954 1308
769 964 799 660 562 588 788 594 628 912 1076 1028 1228 1236 1198 1352 1363 1339 1194 992 818 698 614 777 899 621 472 1160 1563 1492 1377 1253 1216 1075 952 812 870 796 702 837 678 758 702 816 930 701 350 361 780 1179 1137 1091 1300 1637 1630 1671 1093 962 755 824 871 1492
668 727 723 587 618 675 786 833 949 1092 1049 804 1117 1375 1293 1322 1141 1230 1277 992 811 711 761 1021 982 1002 933 1272 1557 1521 1479 1364 1357 1316 1037 1027 1033 1130 894 908 966 752 787 476 160 162 176 366 455 671 634 1084 1177 1548 1720 1315 708 880 819 880 988 1546
862 996 924 836 797 930 1044 1033 1069 1174 1070 1170 1446 1507 1443 1360 1238 1232 910 1114 1030 872 753 842 998 1035 1106 1345 1307 1484 1486 1390 1303 1195 1236 1015 1028 649 1055 765 374 637 452 286 342 472 384 458 604 679 716 1030 1268 1469 1659 1423 1055 1361 768 944 1315 1494
989 1324 1245 1150 1097 1194 1165 1002 1088 1539 1419 1556 1402 1514 1536 1433 1343 1191 1153 1022 1028 678 884 921 858 832 1011 1268 1446 1634 1402 1360 1288 1201 1299 1323 1090 795 678 621 329 209 156 359 360 515 566 630 706 800 872 1038 1412 1650 1572 858 1004 859 841 1218 1431 1515
1291 1183 1422 1244 1196 1167 1145 1211 1346 1472 1505 1538 1585 1438 1448 1361 1450 1418 1324 1242 912 715 866 1024 881 814 935 1079 1253 1454 1440 1435 1043 872 489 966 684 670 374 696 486 318 465 666 721 316 293 342 570 608 859 976 1187 1316 1508 859 1110 1000 654 1209 1573 1440
1256 1350 1399 1478 1248 1153 1220 1273 1289 1507 1597 1807 1714 1767 1743 1729 1550 1506 1258 1081 890 774 848 986 1079 971 907 988 1135 1141 1004 991 1013 912 658 622 593 612 546 823 796 406 341 428 344 177 210 106 292 674 672 817 1234 1078 839 1031 1562 966 630 1036 1443 1511
1321 1422 1556 1423 1391 1322 1330 1383 1354 1440 1524 1517 1438 1486 1359 1544 1528 1437 1325 988 812 813 809 728 834 1024 995 1079 998 892 1102 1062 1096 1055 882 765 684 617 736 721 583 849 754 355 181 156 143 135 331 512 690 756 1121 1253 802 1042 1476 940 637 816 1106 1494
1358 1476 1507 1444 1400 1394 1360 1446 1484 1539 1673 1746 1562 1499 1500 1529 1582 1446 1401 1036 872 722 759 615 508 837 1071 1136 978 1047 989 1051 1203 1449 1175 885 781 762 631 874 854 1115 998 857 369 117 188 236 19 288 336 402 711 740 702 824 862 997 803 872 1214 1530
1225 1422 1408 1430 1509 1698 1605 1492 1412 1591 1517 1523 1537 1472 1418 1476 1491 1441 1594 1033 752 693 666 700 660 1018 1110 1180 1247 943 974 907 1100 871 1036 1144 1383 1441 1089 1141 860 754 922 682 649 248 154 106 70 250 355 324 507 876 226 288 1065 1278 1041 910 1086 1216
1300 1352 1348 1350 1541 1580 1512 1294 1371 1202 1265 1317 1573 1388 1386 1410 1481 1382 1097 1273 822 690 647 813 1211 1200 1276 1304 1054 1057 1435 1316 1375 1076 1096 1534 1527 1067 1253 1142 1140 1006 639 886 760 393 367 258 181 125 239 354 570 751 187 364 794 1214 832 914 766 916
1060 1621 1478 1492 1394 1367 1613 1263 1319 1302 1377 1525 1572 1456 1486 1423 1722 1401 1426 1183 1042 982 1186 1284 1364 1320 1282 1286 1336 1190 1292 1402 1338 1429 1404 1430 1388 1294 1351 1474 1108 1067 1331 994 450 355 375 225 317 224 84 258 304 220 333 560 766 1083 720 1075 1368 691
1514 1523 1662 1501 1718 1434 1470 1245 1398 1423 1517 1646 1473 1511 1545 1721 1802 1620 1374 1578 1188 929 1203 1342 1385 1168 1274 1205 1275 1214 1203 1286 1478 1438 1559 1639 1594 1602 1470 1339 967 795 941 962 932 616 605 596 556 127 324 526 341 366 419 636 926 1085 1140 879 1586 1172
1525 1397 1423 1484 1432 1453 1517 1263 1098 1214 1566 1665 1630 1668 1832 1909 1662 1571 1474 1307 1508 1442 1262 1429 1222 1434 1111 1209 1217 1158 1270 1388 1196 1404 1418 1510 1645 1576 1439 1268 1145 1408 936 1087 948 700 928 720 1015 319 488 208 149 536 385 500 885 1243 1370 1393 1596 1212
1821 1669 1666 1581 1666 1684 1650 1626 1464 1476 1857 1933 1735 1853 1886 1736 1548 1545 1478 1548 1536 1403 1275 1387 1097 1263 1084 1072 1250 1248 1383 1102 1040 1383 1090 1508 1537 1334 1431 1313 1184 1117 1201 1258 1033 1088 1287 533 976 727 405 221 468 674 616 693 871 855 863 1252 1340 1318
1716 936 1871 1814 1760 2158 2043 1652 1674 1664 1894 2110 1870 1698 1752 1764 1617 1611 1484 1187 1272 1648 1473 1337 1221 1292 1283 1076 941 1104 1071 1091 1039 1294 1201 1306 1170 1463 1460 1171 1299 1195 1387 1386 1113 1120 1674 1184 939 741 620 453 776 494 1031 847 884 966 1373 1089 1026 929
1667 1638 2034 2070 2186 2394 2042 1932 1828 1862 1907 1731 1664 1548 1374 1178 1494 1433 1454 1498 1396 1839 1570 1123 1236 1373 1085 1071 1035 835 908 1057 1237 1256 1152 1261 1299 1398 1540 1730 1695 1438 1323 1574 1488 1194 1096 1183 761 1053 560 700 634 692 968 770 1050 1358 998 1112 1144 1084
1710 2156 2089 2181 2393 2328 2437 2215 2161 2101 2104 1956 1700 1552 1485 1275 1297 1417 1402 1649 1728 1576 1718 1412 1294 1029 780 753 680 778 876 906 848 1166 1344 1169 1098 1255 1531 1672 1613 1572 1397 1367 1335 1370 859 667 924 709 605 609 841 675 866 974 712 817 986 925 982 1037
2037 2245 1971 2426 2270 2352 2191 2042 1952 1941 1824 1666 1256 1117 1198 1146 1109 1174 1222 1467 1675 2055 1569 1691 1324 899 827 512 717 567 818 844 998 1343 1218 1014 1233 1216 1424 1519 1593 1391 1514 1172 1359 1006 762 572 611 426 720 756 574 760 818 1271 857 634 898 937 778 636
1900 1704 1735 1916 2058 1788 1836 1766 1905 1759 1676 1482 1090 1070 1249 973 1000 1146 1036 1065 1424 1477 1680 1468 1254 1041 903 862 602 496 635 1084 1109 975 766 912 1042 1278 1249 1592 1514 1149 1334 1485 1345 1189 825 650 496 555 512 674 689 825 1159 1030 956 1238 696 702 459 483
2152 2165 2233 2265 2240 2316 1766 1716 1854 1392 1077 926 789 841 963 1335 1306 1259 1440 1444 1621 1368 1500 1624 1241 1076 832 710 724 822 1072 1321 1296 1133 836 1147 1323 1414 1297 1570 1289 979 970 1144 1088 1001 685 525 274 434 582 676 774 1168 1217 878 1027 1055 805 827 434 408
1980 2004 2000 2398 2331 2318 2289 1705 1812 1247 1198 621 473 984 570 800 1165 1111 1612 1382 1514 1456 1429 1259 1463 974 732 965 1018 1078 1303 1390 1264 1298 1207 1138 1408 1344 1436 1239 1092 1135 891 899 712 796 685 560 479 631 611 617 601 638 644 823 965 975 1088 1072 905 321
2084 2128 2188 1619 1210 2008 2479 2202 2090 2253 1887 1648 1032 738 539 564 1078 911 1157 1261 1308 1506 1278 1184 1200 1073 1507 1166 1353 1211 1428 1255 1485 1340 1404 1336 1236 1486 1354 1259 1135 1028 1067 858 905 988 876 664 527 406 316 405 487 396 279 636 811 741 940 888 567 677
2189 1908 1460 1177 1324 1290 2303 2062 1886 1177 969 925 820 838 745 328 533 798 1110 1278 1228 1288 1060 921 1148 1067 1014 1100 1084 1025 831 1112 1293 1345 1140 1269 1388 1416 1525 1392 1107 1022 961 1071 815 772 961 705 577 602 972 558 306 324 452 534 577 740 1053 1086 641 440
1752 1679 1282 1019 1144 1288 1317 2356 1697 1216 761 734 786 854 1041 1076 497 379 528 813 827 915 785 792 823 694 727 716 832 939 829 1135 1442 1020 1199 1436 1131 1461 1428 1283 1136 1230 1094 796 1036 972 1196 727 819 742 609 1123 673 578 567 663 470 327 712 1240 814 440
1709 1433 1102 891 788 1213 1152 1787 1644 1098 684 835 810 1216 892 736 931 412 480 898 832 935 680 944 717 447 362 489 878 768 555 985 920 1316 1310 1291 1460 1345 1095 963 1284 1351 1220 977 815 725 820 678 502 516 620 1024 1114 1143 865 468 411 296 274 453 474 527
1548 1231 1277 920 672 854 1255 1791 1547 1002 786 1143 1306 886 1087 1078 655 552 801 597 774 696 742 614 643 140 240 761 792 746 695 654 445 508 541 838 1470 1211 1399 1149 1374 1380 1322 1190 1246 906 565 599 497 378 577 602 768 1155 1243 1176 416 364 202 144 127 206
1170 1051 1036 1001 1066 1058 1130 1541 1862 1528 1208 1336 772 995 510 307 553 629 606 615 716 398 775 804 602 614 569 322 782 907 734 567 1099 331 275 482 736 826 1163 1192 1479 1478 1220 1254 1134 914 632 332 334 254 417 594 849 1027 1193 1119 618 305 344 160 94 81
1100 960 764 700 995 1197 1052 913 1435 1398 1519 668 731 610 329 487 632 694 902 1087 1104 1051 874 683 869 462 444 496 527 589 538 537 633 505 447 519 731 868 1060 1107 1368 1380 1291 974 1347 1235 1219 1206 873 756 573 778 683 601 720 918 790 707 697 396 122 13
788 783 664 582 886 1116 795 959 1372 1619 670 603 643 656 547 420 528 782 1000 856 901 1001 688 992 781 703 863 627 726 614 456 379 406 771 385 359 664 544 918 1051 1096 1104 983 1166 978 763 1288 1117 950 836 512 473 608 559 443 404 535 639 538 696 223 18
706 709 587 605 719 748 796 1020 1526 1306 680 787 811 756 532 466 382 441 573 700 1079 930 1015 726 958 816 850 623 698 736 546 662 623 663 668 643 333 553 769 728 923 1044 1060 1149 1250 1363 1319 1087 1058 918 898 324 376 578 750 389 484 805 668 469 222 8
872 771 635 619 697 888 970 1298 1980 1279 1297 1271 902 645 589 689 576 645 620 803 539 834 726 817 752 741 416 407 354 462 762 499 135 247 154 63 226 472 622 606 721 690 763 859 972 1108 955 1050 1072 705 563 799 479 576 588 527 440 641 1154 663 326 5
754 757 686 795 833 1013 1192 1536 1867 1610 1366 1029 1103 720 644 533 656 694 830 619 495 747 759 793 709 626 314 314 519 82 42 40 104 162 295 348 278 294 475 209 398 522 573 727 854 731 548 630 646 581 686 408 178 252 615 702 692 635 351 673 160 172
804 869 928 897 991 1184 1312 1926 1811 1571 1222 1001 919 662 696 798 664 558 561 342 926 746 929 648 430 130 73 54 85 75 120 302 165 52 78 102 22 13 108 43 163 479 532 580 624 509 371 92 2 0 0 0 0 0 277 453 414 528 306 288 317 22
890 1061 1081 1058 1210 1353 1919 1726 1877 1472 1299 1232 577 664 798 629 748 904 452 676 804 1004 727 504 96 26 34 50 4 5 67 108 103 116 76 22 0 0 8 13 0 23 0 69 164 9 1 10 11 5 2 2 0 0 0 0 0 0 24 91 0 46
959 1111 1218 1179 1341 1850 1588 1515 1732 1600 1444 1325 708 885 863 908 739 643 668 774 464 841 572 187 36 4 0 5 20 14 28 74 124 34 0 0 0 0 0 0 10 0 0 0 0 0 1 0 0 0 4 3 2 6 5 7 2 0 0 21 27 8
Wind_Speed
34 31 30 30 27 26 29 33 29 27 28 30 25 23 25 25 24 26 30 31 33 35 36 37 38 26 22 24 25 24 20 18 19 21 20 19 18 17 17 15 14 14 13 13 12 11 11 13 14 15 13 11 14 16 15 14 19 19 17 20 21 20
31 31 30 26 26 25 24 23 21 22 24 22 19 22 24 21 23 24 28 26 26 28 29 32 32 26 22 21 22 20 19 19 21 21 21 20 19 17 16 14 12 12 12 13 12 14 13 12 12 14 13 13 17 17 15 19 22 19 19 21 21 21
33 29 30 28 26 25 23 22 25 25 22 20 20 21 19 21 22 25 23 24 26 25 26 28 25 25 22 15 18 18 20 22 23 23 23 21 20 17 14 12 11 11 13 13 15 14 13 15 15 12 14 17 17 16 19 19 22 20 21 22 21 25
34 32 30 27 26 25 24 24 24 22 20 19 20 20 20 21 22 23 24 26 25 25 25 24 26 24 20 15 16 17 20 24 26 25 25 22 19 17 14 12 10 11 14 15 15 13 11 15 15 17 16 16 17 17 20 21 22 19 20 25 24 26
32 31 33 29 27 25 24 24 22 22 24 24 22 20 19 20 22 24 25 24 23 23 23 22 20 17 16 14 14 14 17 19 22 24 25 20 21 18 17 15 15 15 14 14 12 11 10 11 18 17 16 16 16 21 21 24 22 20 20 25 25 28
32 31 29 27 27 28 30 26 24 25 26 24 23 20 19 22 23 23 21 19 19 18 17 16 16 16 16 14 12 11 12 14 16 20 20 18 20 21 18 20 18 15 13 11 10 10 11 14 16 16 16 15 19 21 20 26 24 23 22 26 27 29
30 28 28 28 30 29 28 26 25 25 25 23 22 22 23 23 19 17 16 15 14 14 13 14 15 16 15 14 11 11 11 10 12 16 15 16 18 18 15 13 11 8 12 13 13 11 13 13 14 14 14 16 17 20 19 24 22 23 23 25 26 30
30 29 30 30 30 28 27 26 25 23 21 22 21 22 21 16 13 14 16 16 17 16 15 16 14 15 13 12 12 13 13 10 12 15 14 11 15 14 13 13 10 7 9 10 13 11 12 11 13 12 14 13 16 16 26 21 21 24 24 23 24 27
31 32 32 31 29 27 27 27 24 20 18 21 20 20 16 14 13 14 17 18 22 21 19 19 15 15 13 12 12 13 13 12 13 15 16 14 12 14 13 12 10 9 10 10 12 14 10 10 12 12 12 13 13 16 25 22 21 24 24 23 22 23
32 32 31 29 26 25 25 25 22 18 19 19 19 19 16 14 14 16 18 20 22 21 18 15 13 14 14 13 12 12 12 12 11 13 14 15 15 15 12 15 12 10 12 11 11 10 9 10 nan 10 13 13 13 14 25 24 24 18 22 21 19 20
31 30 29 26 25 24 23 22 20 19 19 18 18 17 15 15 16 19 20 22 21 19 17 11 11 12 14 13 14 13 12 12 11 12 11 11 16 14 13 14 13 14 16 13 10 10 6 8 nan 13 10 8 13 14 28 25 19 19 20 19 19 19
31 28 26 26 24 23 21 20 20 19 17 16 17 15 15 15 16 19 18 20 19 17 16 13 11 12 14 12 13 13 12 11 12 12 10 11 13 13 12 13 13 11 13 13 11 10 5 8 9 9 11 10 10 18 26 23 18 17 17 18 20 17
28 26 24 25 24 21 20 21 18 16 14 14 13 13 14 13 15 18 18 20 20 16 18 15 13 13 14 12 12 12 9 8 9 9 9 10 11 11 10 10 9 8 9 12 12 11 10 12 13 11 nan 9 11 23 22 19 14 16 18 17 17 17
26 24 24 24 21 20 18 17 15 13 14 14 13 13 12 12 13 17 17 19 20 19 19 15 14 15 13 13 12 11 8 7 7 9 10 8 9 9 9 7 6 7 10 12 14 12 13 12 12 15 13 10 16 19 19 16 15 18 17 16 15 18
26 24 23 22 21 19 17 17 14 15 16 15 14 12 12 13 13 13 15 14 15 15 16 16 14 13 14 13 11 11 9 9 8 9 8 7 6 8 8 6 6 9 9 11 11 11 13 12 11 16 13 15 15 20 18 17 18 17 16 17 18 19
22 21 20 19 20 19 18 15 16 18 18 14 13 12 12 12 12 12 13 13 14 14 14 14 15 14 15 11 10 10 10 10 8 8 7 7 6 6 6 6 6 7 7 7 7 9 11 8 10 11 17 23 15 14 17 17 18 19 17 17 19 19
23 20 19 18 19 19 18 18 18 18 16 13 12 12 11 11 10 10 11 14 11 13 13 15 14 14 14 12 10 11 12 10 9 8 6 7 6 4 3 4 5 5 4 6 8 10 9 10 11 15 15 22 16 14 11 15 16 16 15 17 19 20
23 21 19 18 18 19 19 20 20 18 15 14 12 11 11 10 10 9 9 12 12 13 14 14 13 15 14 14 12 13 12 10 9 8 7 6 6 5 4 4 5 6 6 8 10 9 10 11 13 15 15 17 15 10 9 12 9 10 15 19 20 21
22 22 20 19 20 19 19 20 21 19 16 14 12 11 12 10 10 9 9 10 12 13 13 16 16 17 14 13 13 13 12 12 11 9 8 7 7 7 6 4 5 7 7 9 10 10 11 13 14 15 17 14 8 6 9 12 12 8 17 17 20 24
22 22 21 21 19 17 18 21 22 20 17 13 13 12 8 10 9 8 12 11 12 13 14 14 19 17 14 12 16 14 12 11 11 10 8 6 6 7 7 5 6 7 10 11 11 9 13 13 13 15 13 12 9 4 8 9 10 11 12 19 22 22
22 23 21 20 18 17 19 21 22 20 18 13 14 11 11 10 8 12 11 13 13 12 15 14 19 18 15 15 17 14 12 10 11 11 10 5 5 8 8 7 9 8 10 10 9 10 12 12 14 10 9 10 7 8 10 11 11 14 19 15 20 17
24 24 23 21 20 19 20 21 21 20 17 14 14 11 11 12 13 12 13 14 14 13 16 16 19 20 17 15 15 13 11 11 10 12 11 7 6 9 9 9 9 9 9 10 8 11 12 12 12 11 9 7 9 11 11 11 10 14 19 20 21 18
25 25 24 23 21 20 21 22 20 21 17 15 13 12 13 13 13 14 13 14 13 14 15 16 18 21 16 12 13 12 11 12 10 9 9 7 7 10 10 9 9 8 11 9 9 10 12 11 12 13 9 7 9 10 9 10 10 14 16 18 23 22
27 26 26 25 26 23 22 22 24 23 23 20 18 17 15 12 14 13 12 14 13 12 14 15 18 20 16 14 10 11 11 12 10 8 7 6 8 9 10 10 11 9 10 10 8 9 12 10 11 13 10 8 11 12 10 10 12 13 15 17 23 21
28 27 25 26 26 24 25 26 28 26 23 21 17 16 14 14 12 13 15 14 14 12 13 15 18 18 18 16 12 12 11 10 11 10 8 7 7 8 10 10 11 10 10 10 11 9 10 10 10 8 10 12 13 12 10 13 12 14 15 18 21 22
27 25 24 26 26 27 26 27 28 25 21 19 18 15 13 13 14 12 14 15 14 14 16 13 14 15 16 14 12 15 14 12 12 11 10 8 8 9 10 10 10 10 11 12 13 11 11 9 9 8 7 10 12 11 14 14 13 15 16 18 18 21
22 22 22 24 26 25 28 24 25 23 20 18 16 14 16 13 14 17 16 15 16 15 15 15 17 15 13 11 11 11 10 11 14 13 12 10 9 9 9 10 11 10 11 13 14 13 12 10 9 8 6 9 11 9 15 16 15 19 20 17 17 20
18 20 20 24 26 23 23 18 18 18 17 15 16 18 16 16 17 16 16 15 13 11 13 14 14 14 12 12 12 10 9 10 11 13 12 11 12 13 10 11 12 11 11 13 14 15 14 13 9 8 10 10 7 11 14 14 18 18 20 20 20 16
18 19 21 23 24 23 23 21 17 17 15 17 19 17 18 18 17 15 14 11 10 10 11 11 13 13 15 14 13 13 11 10 9 13 13 13 11 13 17 14 14 14 13 15 14 16 17 14 13 13 14 9 10 13 14 16 15 16 18 20 nan nan
23 21 22 21 22 25 24 21 14 13 16 17 16 16 17 16 16 12 12 10 11 10 11 10 10 11 13 13 15 15 14 13 12 14 14 14 14 14 16 16 18 15 14 15 14 15 17 17 18 19 17 15 16 16 15 14 15 15 19 17 18 nan
22 16 15 16 20 16 18 16 9 12 16 15 13 15 17 15 14 12 12 11 10 11 10 12 12 11 13 15 14 18 18 17 15 15 17 14 15 17 17 17 18 18 15 17 17 14 17 19 19 20 21 18 17 15 13 13 14 14 15 16 18 nan
18 14 13 14 14 13 16 13 11 15 16 13 12 14 14 13 13 12 11 9 10 12 13 14 13 13 14 15 14 15 17 19 18 17 17 15 17 17 18 19 20 19 17 16 17 18 18 19 19 18 21 19 16 16 14 15 13 16 14 16 19 nan
18 15 13 13 10 10 12 10 12 18 17 15 14 14 12 13 13 13 11 9 10 10 13 14 15 16 14 16 15 14 16 20 19 17 17 nan 17 19 19 20 21 20 18 18 18 18 19 18 18 19 20 18 19 17 15 15 16 14 13 15 17 nan
21 19 18 16 13 13 10 9 13 18 19 18 15 14 13 14 14 14 11 12 9 11 13 14 15 15 13 13 14 nan nan nan 16 16 16 16 17 19 21 21 20 21 19 18 17 17 17 18 17 16 16 16 16 15 14 14 14 15 16 15 15 14
27 25 25 22 17 14 12 10 17 19 19 18 17 15 14 15 15 16 15 13 11 13 15 13 14 13 nan nan nan nan 13 14 15 nan nan 15 nan nan 21 nan 19 18 18 18 18 18 17 nan nan nan nan nan nan nan 15 15 13 12 15 16 14 nan
24 24 26 27 23 20 17 16 21 22 19 18 18 17 17 18 19 18 17 15 14 15 15 13 nan nan nan nan nan nan nan 15 15 15 nan nan nan nan nan nan nan nan nan nan 22 nan nan nan nan nan nan nan nan nan nan nan nan nan nan nan nan nan
24 24 25 26 25 24 22 21 21 22 21 19 19 19 20 21 23 21 20 18 16 17 16 15 nan nan nan nan nan nan nan nan 15 nan nan nan nan nan nan nan nan nan nan nan nan nan nan nan nan nan nan nan nan nan nan nan nan nan nan nan nan nan
Wind_Direction
284 292 291 288 286 285 288 288 282 283 290 298 302 304 302 294 287 284 283 278 275 279 284 280 278 270 269 272 275 283 283 285 288 285 286 288 288 288 287 290 290 292 288 283 276 271 266 262 260 255 250 236 235 244 251 254 258 258 264 265 268 273
288 292 291 289 290 286 288 289 285 290 300 308 317 310 301 288 285 283 280 277 279 282 284 282 279 275 260 273 282 286 288 292 292 289 289 289 287 285 282 282 285 282 276 270 268 256 255 262 268 265 259 248 248 252 251 254 259 269 266 261 269 275
300 292 290 290 285 284 289 290 293 300 304 313 310 302 289 284 282 287 283 280 285 282 283 286 281 271 274 271 286 298 298 301 296 293 291 290 286 283 279 276 270 263 252 243 247 248 254 259 259 272 265 256 253 253 255 252 257 256 262 265 266 277
300 298 290 287 286 289 294 297 297 301 304 303 299 286 281 279 280 279 279 286 288 284 284 280 279 276 274 257 282 301 304 301 297 293 292 287 288 282 279 269 254 248 246 249 253 250 251 269 268 264 259 260 258 260 258 261 263 265 267 272 271 277
296 294 292 292 291 293 298 301 302 302 302 300 299 292 284 281 281 283 286 288 284 281 279 272 266 257 246 258 287 302 301 298 292 292 293 283 280 275 268 257 251 247 248 252 257 260 253 256 269 269 263 261 261 259 259 259 259 256 260 263 267 272
294 289 292 294 295 300 302 301 301 301 298 296 298 295 289 287 291 293 294 285 274 275 277 269 257 251 256 271 288 288 301 303 301 286 289 271 264 252 254 239 218 226 250 255 248 264 258 256 267 263 269 266 260 261 259 262 266 261 254 257 263 267
286 287 293 294 295 299 300 300 298 298 299 299 296 290 286 291 295 294 293 289 280 281 276 277 269 258 265 281 285 283 283 276 278 277 273 275 267 271 269 258 250 221 221 217 218 228 240 233 244 262 259 261 261 265 268 266 264 262 258 258 261 267
292 290 290 290 293 296 298 298 296 296 298 293 289 284 284 287 295 296 294 291 285 281 275 273 271 273 290 290 283 284 285 288 281 278 280 273 275 270 258 259 278 259 223 216 200 224 238 240 232 235 258 256 261 264 257 261 257 261 259 260 263 268
295 296 290 291 292 294 294 295 296 298 295 295 280 287 288 278 287 292 286 285 285 287 286 286 282 294 306 301 285 289 295 294 289 284 293 279 276 278 268 277 286 258 234 230 229 209 225 237 254 231 252 257 262 262 274 266 254 262 259 262 266 272
296 293 291 294 293 294 296 297 300 301 285 283 278 283 286 282 287 288 284 281 283 290 291 284 295 305 311 303 301 299 289 291 284 287 284 287 285 290 297 292 293 280 261 249 235 231 216 241 nan 257 235 249 248 257 258 251 237 234 264 268 272 275
297 294 294 296 295 294 295 296 296 286 282 283 279 278 282 286 289 285 285 286 288 291 286 290 306 313 312 312 307 299 300 302 295 284 293 295 296 301 294 277 275 268 261 246 214 216 223 252 nan 258 257 262 258 258 263 259 258 257 261 280 277 271
296 294 294 295 293 292 290 290 292 291 288 282 282 281 286 291 293 292 296 299 301 297 296 312 318 315 303 302 309 303 296 298 299 314 309 294 296 294 283 269 259 257 256 253 217 213 217 255 260 263 266 281 284 257 269 267 275 276 279 270 272 267
300 297 298 297 296 292 289 297 294 295 290 287 286 284 287 291 293 298 304 306 300 308 310 315 308 298 298 303 294 288 289 292 303 299 286 281 279 280 274 272 263 238 240 243 228 229 232 241 228 219 nan 273 267 269 268 278 293 280 271 263 269 278
294 299 305 301 295 293 292 290 287 285 289 295 293 291 288 286 290 299 307 308 311 319 311 308 302 303 307 297 290 287 300 298 287 283 274 279 281 276 278 280 271 259 247 247 244 246 239 219 223 233 197 216 240 261 285 288 269 267 268 272 268 271
301 305 303 297 293 284 282 288 290 284 285 288 287 285 284 285 293 292 297 304 304 302 302 304 294 295 293 291 301 304 303 287 289 295 301 295 297 285 274 267 262 263 253 257 262 244 233 226 202 236 230 212 243 273 282 279 273 274 274 271 271 273
294 291 293 292 283 281 280 281 280 283 282 281 277 275 281 290 293 295 293 298 302 308 310 304 297 295 287 292 293 288 281 284 292 289 299 305 282 281 273 254 255 261 241 238 258 252 253 252 215 241 237 227 222 246 270 276 280 283 280 278 273 270
289 288 288 283 283 277 278 278 278 276 275 269 267 274 278 281 284 288 293 297 313 309 299 290 292 287 281 282 282 277 278 285 292 293 307 307 298 259 243 282 279 266 237 263 265 257 258 248 229 241 237 240 233 226 233 278 282 283 289 281 275 272
278 286 286 288 280 272 271 273 272 268 265 265 265 268 278 283 279 279 288 296 302 292 289 288 284 275 278 281 281 276 278 283 285 297 301 307 305 290 253 236 258 251 248 265 270 262 262 247 243 249 243 252 257 261 257 256 252 286 290 281 282 279
275 278 282 281 275 267 268 268 264 262 262 257 255 270 276 276 282 279 274 269 280 280 279 283 278 272 273 273 279 272 286 291 291 298 311 307 313 307 288 272 262 276 270 257 256 253 259 245 241 253 255 243 243 238 258 298 309 296 283 281 284 279
271 272 272 272 275 276 273 269 263 261 261 256 263 266 271 265 279 286 276 275 265 261 274 276 275 277 277 284 274 279 282 294 301 306 301 310 305 303 297 277 269 265 266 259 261 258 255 263 249 250 259 273 276 228 260 273 270 268 263 274 271 274
269 272 277 276 276 270 269 265 260 259 258 259 267 266 252 259 262 256 267 272 270 271 268 270 276 279 279 276 273 280 287 296 296 297 304 315 309 297 292 287 275 258 268 272 266 259 259 256 259 250 262 284 290 284 274 262 269 280 277 283 286 283
268 267 272 271 266 259 263 264 263 262 263 267 268 268 265 260 256 257 249 252 253 256 264 261 263 268 270 277 280 288 292 292 301 301 309 325 321 295 299 295 283 277 271 274 265 265 275 264 249 262 256 272 286 286 274 282 290 286 289 289 293 292
263 263 260 253 255 256 254 261 256 258 261 264 257 256 264 267 272 265 255 257 255 255 255 258 267 268 269 280 290 290 299 299 300 306 314 312 305 292 288 286 286 283 288 279 269 264 262 256 273 270 267 278 281 284 284 278 275 275 278 285 290 296
262 260 258 252 246 234 250 253 251 246 243 247 251 249 256 256 256 262 261 262 260 263 271 273 274 271 268 272 281 294 284 284 297 298 308 305 289 290 286 286 286 281 284 279 271 264 268 260 262 275 264 272 270 272 282 284 279 271 276 277 286 291
261 258 256 250 247 239 238 244 245 245 245 250 251 255 255 251 247 246 254 260 263 268 271 271 278 283 288 297 300 293 304 315 309 308 318 320 308 301 292 288 285 283 281 276 275 265 269 278 273 265 272 277 267 268 271 278 281 272 273 276 283 288
259 261 257 256 254 252 246 244 242 242 243 245 254 255 259 256 253 261 263 261 272 266 257 258 264 267 277 284 294 309 321 320 316 318 325 325 320 305 305 301 293 284 282 274 270 268 264 265 272 270 265 260 268 276 286 291 280 271 269 277 284 286
262 262 261 263 260 259 260 244 233 235 240 247 258 258 258 263 264 258 261 263 258 262 263 248 249 252 253 266 275 285 296 311 310 317 321 321 312 304 313 312 302 294 285 280 277 276 278 272 263 269 277 252 264 270 281 283 276 282 275 266 273 281
267 268 264 268 262 254 256 237 230 241 244 249 256 261 266 261 258 260 260 267 272 265 261 247 247 255 259 265 275 282 288 280 300 304 309 308 302 310 306 298 294 295 287 289 292 283 286 284 294 280 272 267 261 269 267 261 273 281 282 283 274 260
253 251 251 255 257 252 244 225 239 255 246 244 255 255 257 258 256 260 264 273 281 273 255 249 245 246 255 265 272 277 283 289 291 294 288 278 287 290 295 301 300 292 288 285 283 288 293 299 294 278 280 281 290 271 266 266 269 275 281 283 nan nan
242 242 245 246 246 248 244 233 240 272 260 253 253 252 254 255 258 265 271 266 256 256 254 248 260 268 277 278 283 291 282 279 272 268 272 275 274 280 289 298 296 297 295 290 285 284 283 286 282 288 288 288 276 275 270 270 268 269 273 275 285 nan
239 242 242 248 245 239 246 245 279 299 279 263 256 254 253 258 265 265 266 263 263 268 275 275 272 269 269 272 274 286 296 288 278 277 283 285 287 287 286 290 295 298 297 292 286 279 281 271 272 272 275 274 276 274 277 279 289 283 283 288 287 nan
245 243 237 234 233 221 235 259 293 295 285 272 261 257 263 267 271 270 268 269 265 272 277 285 287 284 285 288 286 283 285 285 282 283 282 282 283 285 286 287 290 288 286 283 286 286 276 274 271 273 274 278 275 275 281 282 284 284 291 296 298 nan
284 285 286 276 281 271 264 275 293 292 288 282 267 263 269 272 272 268 270 271 276 282 286 294 293 289 285 284 287 289 285 284 286 276 274 nan 269 279 283 290 290 286 284 279 277 279 278 274 270 268 270 268 272 274 279 280 284 294 290 292 303 nan
310 310 309 308 298 279 274 275 286 287 287 284 275 271 268 274 272 272 275 273 282 287 292 291 292 287 290 284 276 nan nan nan 287 284 274 271 275 285 294 291 287 284 284 284 283 276 273 271 267 266 268 272 278 288 290 296 303 304 303 306 306 299
317 320 320 319 303 286 285 296 287 286 284 279 275 271 270 270 273 273 272 280 280 284 285 284 278 276 nan nan nan nan 285 289 289 nan nan 282 nan nan 275 nan 279 281 281 282 277 274 272 nan nan nan nan nan nan nan 291 298 301 308 312 313 312 nan
311 312 317 322 318 303 297 303 296 292 287 277 271 273 272 270 267 268 273 276 274 279 280 273 nan nan nan nan nan nan nan 299 303 302 nan nan nan nan nan nan nan nan nan nan 294 nan nan nan nan nan nan nan nan nan nan nan nan nan nan nan nan nan
311 309 313 319 317 306 295 298 302 301 294 280 271 272 279 276 272 270 270 269 275 278 273 271 nan nan nan nan nan nan nan nan 294 nan nan nan nan nan nan nan nan nan nan nan nan nan nan nan nan nan nan nan nan nan nan nan nan nan nan nan nan nan